Location: *
(37.4917°N, 71.5558°E)
Time: 09:03:16
(UTC+00:00)

Timation 1 Rocket - Pass Details

Date: 09 April 2020
Orbit: 899 x 908 km, 70.0° (Epoch: 03 June)

Event Time Altitude Azimuth Distance (km) Brightness Sun altitude
Exits shadow 23:14:11 24° 212° (SSW) 1,772 5.4 -18.1°
Maximum altitude 23:17:54 75° 294° (WNW) 942 4.3 -17.4°
Drops below altitude 10° 23:23:55 10° 20° (NNE) 2,598 7.4 -16.3°
Sets 23:26:26 0° 22° (NNE) 3,543 8.2 -15.9°
